Temp
9 9 9 9 9 8 9 9 9 9 9 9 9 9 9 9 9 10 10 10 10 9 9 10 9 9 9 9 9 8 8 8 8 8 8 7 7 7 7 7 7 7 7 6 6
9 9 9 9 9 9 8 8 9 9 9 8 9 9 9 9 9 9 9 9 9 9 9 9 9 9 9 9 8 8 8 8 8 8 8 7 7 7 7 7 7 7 6 6 6
9 9 9 9 9 9 9 8 9 8 9 9 9 9 9 9 9 9 9 9 9 9 9 9 9 9 9 8 8 8 8 8 8 8 7 7 7 7 7 7 6 6 6 6 6
9 9 9 9 9 9 9 9 8 8 8 8 8 8 8 8 9 9 9 9 9 9 9 9 9 9 9 8 8 8 8 8 8 7 7 7 7 7 7 6 6 6 6 6 6
8 9 9 9 9 9 9 9 9 9 9 8 8 8 8 8 9 8 9 9 9 9 9 9 9 8 8 8 8 8 8 8 8 7 7 7 7 6 7 7 7 7 6 6 5
8 8 8 9 9 9 9 9 9 9 8 8 8 8 8 9 9 9 8 8 8 8 8 8 8 8 8 8 8 8 8 8 8 8 7 7 7 7 7 7 7 6 6 5 5
8 8 8 8 8 8 9 9 9 9 8 8 8 8 8 9 9 9 9 9 8 8 8 8 8 8 8 8 8 8 8 7 7 7 7 7 7 7 6 6 6 6 5 5 5
8 8 8 8 8 8 8 8 9 9 8 8 8 8 8 8 8 9 9 8 8 8 8 8 8 8 8 8 8 7 7 7 7 7 7 6 8 7 7 7 6 6 5 5 5
7 8 8 8 8 8 8 8 8 8 8 8 8 8 8 9 9 8 8 8 8 8 8 8 8 7 7 7 7 7 7 7 7 7 7 6 7 7 7 6 6 6 5 5 5
7 7 8 8 8 8 8 8 8 8 7 8 8 8 8 8 8 8 8 8 8 8 7 7 7 7 7 7 7 7 7 7 6 6 6 6 8 6 6 6 5 5 5 5 5
6 6 7 7 7 7 7 7 7 7 7 8 8 8 8 8 8 8 8 8 7 7 7 7 7 7 7 7 7 7 6 6 6 6 6 6 7 7 6 7 6 6 5 5 4
6 6 6 7 7 7 7 7 7 7 7 7 7 8 8 8 8 8 8 8 7 8 7 6 7 7 6 6 6 6 6 6 6 6 5 6 7 7 7 8 7 6 6 5 4
6 6 5 6 6 6 7 7 6 6 6 8 8 8 7 7 7 7 7 7 7 7 7 7 7 7 7 6 6 6 6 6 6 5 5 5 7 9 9 9 8 8 6 6 5
5 5 5 5 5 6 6 6 6 5 5 7 8 8 7 7 7 7 7 7 7 7 6 6 6 6 6 6 6 6 6 5 5 4 4 4 3 7 9 8 8 8 7 6 5
3 3 4 5 5 5 5 6 5 5 -1 7 7 7 7 6 7 7 6 6 6 6 6 7 7 6 6 6 5 5 5 5 4 4 3 4 3 8 9 9 8 7 7 6 5
4 3 3 4 4 4 5 5 4 4 3 7 7 7 7 6 6 6 6 6 6 5 5 6 6 6 5 5 5 4 4 4 3 2 -1 3 3 7 8 8 8 7 6 6 5
3 3 3 3 4 4 4 4 3 2 6 7 8 7 7 6 6 6 6 6 6 5 5 5 5 5 5 4 4 4 3 3 -1 -3 -1 1 1 8 8 7 7 6 6 5 4
2 2 2 3 3 3 3 3 2 4 6 7 8 7 6 6 6 5 5 5 5 5 6 6 4 5 5 4 4 4 3 4 -0 -3 -2 1 2 8 8 8 7 6 5 4 3
2 1 2 2 2 2 2 1 2 4 6 6 6 6 7 6 5 5 5 6 6 6 5 6 5 5 5 4 3 2 2 3 2 -1 -3 3 4 7 7 7 6 5 4 3 2
-0 2 2 1 1 0 0 2 2 3 5 5 5 6 6 7 5 5 5 7 6 6 6 5 5 4 3 3 2 2 3 2 1 -2 -2 -0 1 7 7 6 5 4 3 3 1
-4 -2 1 -0 -1 -3 -1 -0 2 2 4 4 5 4 5 6 6 6 5 7 7 7 5 4 4 2 2 3 4 2 1 1 2 1 -4 -5 3 6 6 5 4 3 2 1 0
-5 -4 -3 -2 -2 -2 -2 1 1 2 2 3 3 4 4 5 5 5 5 6 6 6 6 4 3 3 3 3 3 2 2 2 2 -0 -1 -3 1 5 5 4 3 3 2 0 -1
-6 -5 -4 -3 -3 -2 -1 -1 -1 2 2 2 2 3 3 4 4 4 5 5 5 5 6 5 2 2 1 1 1 1 2 1 1 1 1 -3 2 4 4 4 3 2 0 -1 -1
-7 -7 -5 -5 -3 -2 -2 -1 -2 -0 1 2 2 2 2 3 3 3 4 5 5 5 4 3 3 4 3 5 4 2 3 2 1 0 0 1 4 4 3 2 2 0 -1 -1 -2
-8 -7 -7 -5 -5 -4 -3 -3 -1 -1 -1 1 2 1 1 2 2 3 3 4 4 4 3 1 2 3 3 3 3 3 2 2 2 3 0 4 2 5 2 2 1 -1 -1 -2 -2
-9 -8 -7 -6 -6 -6 -4 -4 -3 -1 -1 -0 1 -0 1 1 2 2 2 3 3 3 3 1 2 2 2 2 1 1 1 2 1 1 0 1 2 3 3 2 1 -1 -1 -1 -2
-10 -9 -9 -8 -7 -7 -6 -4 -4 -4 -2 -1 -0 0 -0 0 -0 0 1 1 0 1 2 2 2 1 0 1 -0 -3 3 3 3 4 3 0 7 3 2 1 0 -0 -1 -1 -2
Height
3149 3148 3146 3145 3145 3144 3145 3144 3144 3144 3144 3144 3145 3146 3147 3147 3148 3148 3147 3148 3148 3148 3148 3149 3150 3150 3150 3151 3152 3152 3153 3152 3153 3153 3154 3154 3154 3154 3154 3154 3154 3154 3154 3154 3153
3150 3149 3148 3146 3145 3146 3145 3145 3145 3145 3145 3145 3145 3146 3146 3147 3147 3147 3147 3147 3146 3147 3147 3148 3148 3149 3149 3149 3150 3150 3150 3151 3151 3151 3152 3152 3152 3152 3152 3152 3152 3151 3151 3151 3150
3149 3149 3148 3147 3146 3146 3145 3145 3145 3145 3144 3145 3145 3145 3145 3145 3146 3145 3145 3145 3145 3146 3146 3146 3147 3147 3148 3148 3149 3148 3148 3149 3149 3149 3149 3149 3149 3149 3149 3148 3149 3149 3149 3148 3148
3149 3148 3147 3147 3146 3145 3145 3145 3145 3145 3145 3144 3144 3144 3144 3144 3146 3144 3144 3144 3144 3145 3145 3145 3146 3146 3146 3147 3147 3147 3146 3147 3147 3147 3146 3146 3146 3146 3146 3146 3146 3146 3146 3146 3146
3149 3148 3147 3146 3145 3144 3144 3144 3144 3143 3143 3144 3143 3143 3142 3143 3143 3142 3142 3142 3142 3143 3143 3144 3144 3144 3144 3144 3144 3144 3144 3144 3144 3144 3143 3144 3143 3143 3143 3143 3143 3143 3144 3144 3143
3149 3146 3146 3145 3144 3143 3143 3142 3143 3142 3142 3142 3141 3141 3141 3141 3140 3140 3140 3140 3140 3141 3141 3141 3141 3142 3142 3142 3142 3141 3141 3141 3142 3142 3141 3141 3140 3139 3140 3140 3140 3140 3140 3140 3139
3151 3147 3144 3144 3142 3142 3141 3140 3141 3141 3141 3140 3140 3140 3139 3140 3138 3137 3137 3138 3139 3139 3139 3139 3139 3140 3140 3140 3139 3139 3140 3139 3139 3139 3139 3138 3137 3136 3136 3136 3135 3136 3136 3136 3135
3150 3148 3144 3142 3141 3140 3139 3138 3138 3138 3138 3138 3138 3137 3136 3136 3135 3135 3135 3136 3136 3137 3136 3136 3136 3137 3137 3137 3137 3137 3137 3136 3136 3136 3136 3137 3133 3133 3132 3132 3132 3131 3131 3130 3130
3148 3147 3144 3142 3139 3138 3137 3137 3135 3135 3135 3136 3135 3135 3133 3132 3133 3132 3133 3133 3134 3134 3135 3134 3134 3135 3135 3135 3136 3134 3133 3133 3134 3133 3133 3132 3129 3129 3129 3128 3127 3127 3126 3125 3125
3146 3145 3143 3141 3138 3136 3135 3133 3132 3132 3131 3131 3131 3133 3130 3129 3129 3129 3130 3130 3131 3131 3132 3132 3132 3131 3131 3131 3130 3131 3131 3131 3130 3131 3129 3127 3124 3124 3122 3121 3121 3120 3120 3120 3120
3141 3141 3140 3138 3136 3134 3133 3131 3132 3130 3126 3127 3126 3125 3126 3126 3126 3126 3126 3127 3127 3128 3128 3128 3129 3127 3129 3128 3128 3128 3128 3127 3126 3126 3124 3123 3119 3120 3117 3113 3111 3113 3113 3114 3115
3136 3135 3135 3135 3133 3130 3129 3127 3126 3125 3122 3120 3120 3119 3120 3121 3121 3121 3123 3124 3123 3123 3124 3125 3123 3126 3125 3125 3125 3124 3124 3123 3123 3121 3120 3117 3112 3113 3111 3106 3105 3106 3106 3107 3109
3130 3129 3130 3128 3128 3127 3124 3123 3121 3119 3116 3114 3113 3112 3114 3115 3115 3116 3118 3117 3118 3118 3119 3120 3120 3120 3120 3121 3121 3120 3119 3119 3120 3117 3115 3112 3102 3103 3101 3099 3099 3099 3100 3101 3102
3124 3123 3122 3122 3125 3122 3120 3118 3117 3116 3113 3107 3104 3103 3105 3107 3109 3110 3111 3114 3113 3114 3116 3116 3115 3115 3115 3115 3117 3117 3116 3115 3115 3115 3113 3112 3102 3096 3096 3094 3093 3093 3094 3096 3097
3117 3116 3115 3115 3115 3116 3117 3114 3112 3113 3110 3101 3096 3095 3097 3101 3101 3102 3105 3106 3107 3109 3112 3109 3109 3109 3110 3112 3113 3112 3111 3112 3111 3111 3109 3106 3107 3087 3090 3089 3089 3089 3090 3091 3092
3108 3109 3109 3107 3108 3109 3110 3110 3109 3110 3099 3093 3091 3089 3092 3093 3095 3097 3099 3101 3103 3104 3105 3104 3105 3105 3106 3107 3108 3109 3109 3108 3107 3107 3105 3098 3100 3084 3085 3085 3084 3085 3086 3087 3087
3097 3098 3100 3100 3101 3102 3103 3105 3105 3096 3091 3086 3085 3086 3087 3089 3089 3091 3093 3094 3096 3098 3097 3099 3099 3100 3101 3103 3103 3104 3107 3107 3107 3106 3098 3094 3095 3080 3081 3080 3081 3081 3082 3082 3082
3083 3086 3089 3092 3093 3093 3096 3097 3089 3083 3084 3081 3080 3081 3082 3083 3084 3085 3086 3086 3088 3090 3092 3093 3093 3092 3093 3095 3098 3098 3101 3100 3103 3102 3094 3093 3083 3073 3074 3074 3076 3077 3077 3078 3078
3068 3071 3073 3082 3081 3082 3086 3080 3072 3076 3078 3078 3079 3076 3076 3077 3079 3080 3079 3078 3080 3082 3087 3086 3086 3085 3086 3088 3093 3092 3094 3096 3095 3093 3094 3083 3075 3072 3070 3071 3072 3073 3073 3074 3074
3053 3055 3060 3068 3068 3070 3071 3061 3064 3070 3072 3073 3073 3073 3070 3070 3072 3072 3072 3071 3071 3074 3077 3079 3080 3080 3081 3084 3085 3086 3088 3091 3092 3094 3091 3077 3073 3065 3066 3067 3068 3069 3069 3069 3069
3043 3041 3045 3054 3057 3055 3051 3051 3055 3062 3067 3067 3065 3066 3067 3065 3065 3065 3065 3065 3064 3066 3069 3071 3074 3076 3077 3075 3075 3078 3079 3082 3084 3083 3081 3083 3067 3063 3063 3063 3063 3064 3064 3065 3065
3033 3033 3033 3038 3043 3038 3036 3040 3047 3051 3057 3057 3057 3057 3058 3063 3060 3059 3058 3061 3059 3060 3061 3064 3066 3068 3069 3070 3070 3070 3071 3073 3076 3075 3074 3072 3060 3058 3058 3058 3060 3060 3060 3060 3059
3024 3020 3022 3024 3024 3025 3028 3030 3035 3040 3044 3047 3047 3048 3051 3054 3055 3052 3052 3053 3053 3056 3056 3056 3057 3062 3064 3066 3061 3059 3061 3063 3066 3068 3063 3067 3053 3052 3052 3054 3054 3055 3055 3053 3051
3019 3014 3013 3012 3014 3016 3019 3019 3021 3026 3031 3035 3037 3040 3041 3042 3045 3046 3045 3044 3046 3048 3050 3051 3048 3048 3048 3048 3047 3049 3051 3055 3059 3059 3051 3048 3043 3046 3047 3049 3049 3048 3046 3045 3043
3012 3005 3006 3005 3005 3006 3009 3010 3011 3015 3020 3023 3023 3026 3031 3035 3037 3036 3038 3037 3040 3041 3042 3045 3040 3042 3044 3044 3043 3043 3046 3049 3046 3045 3044 3035 3037 3038 3039 3041 3040 3038 3037 3036 3035
3002 3002 3000 2997 2996 2996 2996 2995 2998 3002 3009 3009 3011 3017 3022 3023 3026 3031 3031 3031 3033 3034 3034 3034 3032 3036 3037 3037 3036 3034 3038 3038 3037 3037 3031 3030 3026 3030 3030 3031 3030 3029 3028 3028 3027
2996 2994 2990 2987 2986 2986 2986 2987 2988 2998 2997 3001 3004 3006 3010 3014 3021 3022 3023 3023 3026 3026 3028 3026 3026 3030 3028 3030 3030 3025 3025 3025 3026 3025 3023 3021 3017 3020 3022 3023 3022 3023 3022 3022 3021
Wind_Speed
0 1 2 3 3 4 5 7 6 8 11 12 13 13 12 12 12 11 11 11 11 11 12 12 13 13 13 14 14 15 15 15 14 13 13 12 13 12 12 11 9 8 7 6 5
3 3 3 3 4 3 4 5 6 7 7 10 11 12 12 12 12 12 12 12 12 12 13 13 13 13 13 12 14 15 16 12 14 14 13 13 14 12 12 10 9 8 7 7 8
3 4 5 6 6 5 5 6 6 7 9 9 9 10 10 11 11 12 12 13 13 13 13 13 13 14 14 14 14 16 17 15 13 12 12 12 12 11 11 11 9 9 9 9 9
4 5 6 7 8 8 8 7 7 8 8 9 9 9 9 9 6 10 11 11 11 12 12 12 13 13 13 13 14 16 15 16 14 13 13 12 11 11 12 12 12 11 11 11 10
6 5 7 8 9 10 10 10 9 8 10 11 11 12 12 11 12 9 10 10 10 11 12 12 11 11 11 11 14 14 13 12 13 12 12 11 12 13 13 14 14 14 13 11 11
8 7 6 9 9 10 11 12 12 11 10 11 11 11 11 11 12 11 11 10 10 10 11 11 11 10 10 11 12 10 12 12 12 11 11 12 14 17 14 15 16 15 15 13 13
12 9 7 8 9 10 11 12 13 13 13 13 13 14 14 14 13 13 13 12 12 11 10 11 11 11 10 10 13 12 12 12 12 12 14 13 18 17 17 17 17 15 16 15 14
12 12 9 8 9 10 12 12 12 14 14 13 13 14 15 14 14 15 14 14 13 13 12 12 12 13 12 13 12 12 13 14 14 15 17 16 16 13 13 16 16 17 18 17 15
13 13 12 10 9 10 12 13 13 14 15 15 15 16 17 17 15 14 15 15 15 14 14 14 14 14 15 15 14 15 12 15 15 15 19 20 13 12 15 17 19 19 19 19 17
16 15 13 13 11 11 12 13 14 16 17 18 19 18 20 12 16 16 16 16 16 15 15 15 16 17 17 18 14 15 17 18 17 15 18 21 20 21 22 23 23 22 20 20 17
17 17 17 15 14 13 13 14 16 19 20 20 17 15 21 13 17 17 18 18 18 18 17 17 19 20 15 16 19 17 15 16 16 18 21 21 25 17 24 28 28 24 20 19 17
19 19 18 18 16 15 14 15 16 19 20 21 23 24 24 21 20 19 19 20 20 20 19 20 22 18 19 18 20 20 18 18 18 18 21 24 28 25 28 31 30 26 21 19 20
23 20 20 21 20 18 17 17 17 19 23 25 25 26 25 25 25 23 22 21 21 21 21 22 17 15 20 19 19 18 19 17 17 18 21 27 36 19 19 20 21 22 19 21 20
23 22 20 21 22 21 20 19 18 17 15 20 21 26 28 25 25 23 23 22 23 20 20 18 25 23 20 20 19 19 18 18 18 15 10 10 11 18 22 22 19 16 16 16 18
26 24 21 21 22 24 22 20 17 14 3 9 18 22 22 27 23 24 26 24 24 21 21 16 16 20 24 21 20 19 17 15 15 16 19 21 11 15 13 12 13 14 15 16 17
34 33 25 22 22 23 23 21 16 11 10 9 12 16 22 25 27 20 23 26 25 24 24 25 20 17 20 21 20 18 15 13 16 13 6 11 13 11 11 11 14 16 16 15 17
41 43 38 29 22 22 22 21 15 12 11 14 20 19 17 23 27 27 24 26 25 21 28 27 27 26 23 21 21 20 12 3 3 1 5 5 9 21 17 15 15 15 16 15 16
42 42 46 37 31 23 25 22 20 10 28 13 11 16 21 22 25 28 29 28 29 28 17 16 12 27 26 28 20 19 20 8 6 3 4 6 11 10 10 14 19 20 17 16 15
45 44 40 38 33 29 28 32 28 33 19 22 27 20 22 23 23 22 31 33 32 32 24 13 15 16 22 22 24 16 20 20 7 6 3 9 15 23 22 18 17 17 16 15 14
44 46 46 34 31 27 32 47 38 33 28 24 23 16 18 28 27 24 22 16 32 33 28 21 11 15 20 21 25 23 13 8 10 3 5 7 11 20 12 11 14 16 15 15 15
35 38 47 35 34 32 44 47 44 39 37 38 35 27 22 20 22 27 16 21 20 19 32 33 22 13 19 23 28 27 27 16 10 7 5 1 9 12 14 12 12 14 14 14 15
29 35 36 38 34 44 55 62 51 42 38 43 43 30 26 29 30 26 26 24 11 19 24 31 17 22 24 20 22 28 29 29 15 8 10 3 18 27 29 21 15 14 14 18 24
35 32 31 29 38 45 48 56 55 51 51 45 46 43 41 42 33 30 33 33 29 27 16 25 20 9 5 19 26 28 33 32 33 22 21 7 13 11 14 10 14 15 20 28 28
26 27 26 27 41 45 47 51 52 50 43 47 47 43 39 38 36 34 28 23 27 31 29 24 25 22 21 10 8 24 35 34 32 21 25 33 42 36 26 21 27 31 31 31 29
28 25 22 20 28 42 49 50 51 52 49 49 48 50 44 40 42 43 38 32 28 27 32 33 28 31 35 25 20 19 18 20 33 39 31 45 36 38 33 32 34 35 32 29 25
28 27 23 21 29 30 31 57 57 55 47 47 50 50 45 44 44 37 33 38 37 30 34 39 28 32 35 30 30 32 29 33 35 37 44 47 49 43 40 34 26 24 22 22 22
31 35 28 31 28 32 29 33 45 46 52 43 46 39 47 48 39 34 35 34 32 33 38 38 37 33 20 23 22 19 40 41 41 43 45 45 33 32 30 26 25 24 22 24 24
Wind_Direction
282 218 147 141 143 139 144 152 162 167 168 177 185 190 196 203 210 214 215 214 217 213 214 220 226 231 234 236 236 236 240 244 240 245 239 245 240 247 247 249 256 265 274 273 280
287 257 230 215 191 189 189 177 181 185 196 192 193 199 204 210 212 213 217 218 220 224 226 227 230 233 234 235 232 230 236 240 243 243 233 238 240 246 247 254 251 259 265 274 287
293 270 257 237 230 222 218 215 206 204 198 207 212 212 214 216 218 220 221 220 219 224 227 228 230 232 233 233 233 238 243 247 253 244 246 245 248 250 249 258 269 262 269 276 283
314 278 265 251 240 234 231 234 231 228 220 209 209 217 221 224 225 224 221 220 221 224 225 225 228 232 235 239 240 242 245 244 244 247 247 245 245 250 258 261 263 267 270 280 282
352 302 276 262 250 241 240 237 237 238 236 237 240 243 241 239 239 253 227 225 223 222 223 223 223 230 238 245 244 245 248 245 240 238 239 247 255 255 261 267 268 269 261 271 267
351 334 290 271 259 249 244 242 244 239 241 242 243 244 245 247 248 242 236 232 232 231 230 226 224 232 248 250 246 249 244 242 245 246 248 255 260 259 262 259 257 258 253 264 262
342 338 322 285 265 257 248 243 245 249 245 250 248 245 248 250 252 247 241 241 241 240 237 235 233 236 244 250 244 249 241 242 242 243 251 257 262 264 260 260 261 261 257 258 256
331 330 323 304 280 267 259 249 245 247 246 244 250 251 258 256 252 245 241 240 240 245 241 237 241 242 240 247 253 237 239 238 245 249 251 256 261 266 262 255 258 267 263 257 257
315 319 319 307 289 273 265 261 250 244 245 250 251 255 256 253 254 245 240 237 238 241 239 236 232 234 239 240 242 239 243 244 246 246 247 256 257 260 266 263 267 271 265 254 255
303 305 307 307 294 280 267 259 254 250 246 253 257 256 253 253 243 242 243 239 242 239 233 230 231 234 236 231 228 239 247 252 249 258 251 256 269 277 281 274 271 268 260 249 252
291 293 297 298 296 283 273 263 257 257 254 253 251 250 251 253 242 239 237 238 237 233 232 233 233 238 253 245 242 250 260 258 257 260 264 267 276 269 277 277 275 277 271 250 253
284 286 286 286 288 283 271 264 262 261 262 256 251 250 249 248 246 239 235 235 235 236 234 234 242 245 247 248 246 251 255 257 262 263 267 275 277 279 269 274 275 271 258 248 250
274 276 282 282 279 278 273 263 260 264 270 265 259 254 249 245 243 237 232 234 234 235 235 237 244 246 246 246 242 246 251 256 261 272 276 288 291 288 271 261 265 260 248 243 247
272 270 271 277 278 276 271 266 264 264 271 268 258 246 240 235 235 229 228 229 230 234 233 243 243 247 247 240 241 249 254 256 260 267 272 274 289 283 282 269 262 252 243 247 249
270 275 269 270 272 273 271 266 259 252 325 256 238 236 229 221 229 228 228 228 230 233 225 232 240 242 240 241 240 246 255 256 260 268 279 272 249 288 274 243 263 250 242 245 251
259 268 272 269 267 271 271 266 251 218 239 245 237 228 226 223 225 226 222 224 227 229 233 237 243 240 235 236 236 244 249 259 269 267 265 246 221 274 250 262 257 245 238 246 253
256 258 261 266 268 268 266 261 232 225 225 244 242 235 229 227 226 226 226 223 219 218 232 238 241 243 241 233 235 236 234 266 300 198 230 211 223 258 265 252 252 244 238 250 256
258 252 252 256 257 265 262 245 225 236 226 238 232 233 230 229 228 228 228 227 225 229 236 232 238 237 240 234 235 233 220 211 219 207 264 225 240 269 268 239 240 249 250 257 256
257 254 249 242 247 246 251 235 235 235 238 250 252 237 231 231 225 230 232 236 236 235 225 224 229 231 230 229 224 224 218 231 246 276 306 249 260 265 255 247 249 251 251 259 256
252 251 248 241 234 235 238 248 246 236 233 247 251 253 240 234 225 225 228 241 239 236 233 235 235 235 225 224 223 220 218 202 204 187 247 271 272 252 272 248 246 246 251 256 265
251 253 249 246 243 232 233 244 252 246 245 245 252 252 248 241 236 234 232 244 236 237 230 228 227 229 221 227 228 219 221 217 212 215 182 250 259 270 274 265 255 243 248 269 276
257 252 255 256 251 242 243 245 248 251 247 248 248 246 245 250 255 242 236 239 242 238 232 224 226 233 238 237 231 229 235 235 220 217 215 225 264 270 275 274 259 256 259 283 295
257 259 243 241 236 246 248 251 248 253 251 249 252 250 252 253 252 255 258 256 250 248 243 225 214 203 235 242 233 228 231 231 228 240 235 178 258 257 253 230 255 257 282 294 294
284 283 263 263 247 244 252 253 248 253 255 248 250 252 251 249 249 248 249 247 248 242 233 226 220 219 223 241 216 222 237 235 231 230 242 239 259 262 261 265 282 289 287 294 292
256 285 278 252 256 256 246 249 253 250 247 243 243 251 246 250 253 250 247 248 244 239 234 222 229 236 239 243 237 242 246 238 233 243 235 268 267 283 276 278 283 288 291 287 288
262 280 282 269 267 263 254 246 242 248 247 244 242 242 254 251 248 251 257 252 252 247 231 227 232 240 247 246 251 255 256 257 256 256 257 262 270 276 280 283 285 282 282 285 284
248 261 281 289 285 278 278 262 247 249 244 244 250 249 246 250 259 264 254 254 255 259 245 230 229 233 247 252 251 257 250 254 260 264 264 255 286 284 280 278 269 270 275 279 281